Temperature
8 8 8 8 8 8 8 8 7 7 7 7 8 8 8 8 8 8 8 8 7 8 8 8 7 7 7 7 7 7 7 7 7 7 7 7 7 7
7 7 7 7 7 7 7 7 7 6 6 6 6 7 7 7 7 7 7 7 7 7 7 7 7 7 6 6 6 6 6 6 6 6 7 6 7 7
7 7 7 7 7 7 6 6 6 6 5 6 6 6 6 6 6 6 6 6 6 6 6 6 6 6 6 6 6 6 6 6 6 6 6 6 6 7
6 6 6 6 6 6 6 5 5 5 5 5 5 5 5 5 5 5 5 5 5 5 5 5 5 5 5 5 5 5 5 5 5 5 5 6 6 6
5 5 5 5 5 5 5 5 4 4 4 4 4 4 4 4 4 4 4 5 5 5 5 5 5 5 5 5 5 5 5 5 5 5 5 5 5 5
5 5 4 4 4 4 4 4 3 3 3 3 3 3 3 3 3 3 3 4 4 4 4 4 4 4 4 4 4 4 4 4 4 4 4 5 5 5
4 4 4 4 3 3 3 3 3 2 2 2 2 2 2 2 2 2 2 2 3 3 3 3 3 3 3 3 3 4 4 4 4 4 4 4 4 4
3 3 3 3 3 2 2 2 2 2 1 1 1 1 1 1 1 1 1 1 1 1 1 2 2 2 3 3 3 3 3 3 3 3 3 3 4 4
3 2 2 2 2 2 2 2 2 1 1 1 0 1 0 1 0 0 0 0 0 0 0 1 1 1 2 2 2 2 2 2 3 3 3 3 3 3
2 2 2 2 2 1 1 1 1 1 1 0 0 0 -0 -0 -0 -0 -0 -0 0 0 -0 -0 0 1 1 1 2 2 2 2 2 2 2 2 3 3
2 1 1 1 1 0 0 0 1 1 0 0 -0 -0 -0 -0 -1 -1 -1 -1 -1 -0 -1 -1 -1 -0 0 1 1 1 1 1 2 2 2 2 2 2
1 1 1 0 0 -0 -0 -0 -0 -0 -0 -0 -0 -0 -1 -1 -1 -1 -2 -2 -2 -2 -1 -2 -1 -2 -1 -1 -0 0 0 1 1 1 1 1 1 1
0 0 -0 -0 -0 -0 -1 -1 -1 -1 -1 -1 -1 -1 -1 -1 -1 -2 -2 -2 -2 -2 -2 -3 -2 -2 -2 -2 -1 -1 -0 -0 0 0 1 1 1 1
-1 -1 -1 -1 -1 -1 -1 -1 -2 -2 -2 -2 -2 -2 -2 -2 -2 -2 -2 -2 -2 -3 -2 -3 -3 -3 -3 -2 -2 -2 -1 -1 -0 -0 -0 0 0 0
-1 -1 -2 -2 -2 -2 -2 -2 -2 -2 -2 -2 -3 -3 -3 -3 -3 -3 -3 -3 -3 -3 -3 -3 -3 -3 -3 -3 -3 -2 -2 -2 -1 -1 -1 -1 -0 -0
-2 -2 -2 -2 -2 -2 -2 -3 -3 -3 -3 -3 -3 -3 -3 -3 -3 -3 -3 -3 -3 -3 -3 -3 -3 -3 -3 -3 -3 -3 -2 -2 -2 -2 -1 -1 -1 -1
-2 -2 -2 -2 -2 -3 -3 -3 -3 -4 -4 -4 -4 -4 -4 -4 -4 -4 -4 -4 -4 -4 -4 -3 -4 -4 -3 -3 -3 -3 -3 -2 -2 -2 -2 -2 -1 -1
-3 -3 -3 -3 -3 -4 -4 -4 -4 -4 -4 -4 -4 -5 -5 -5 -5 -5 -5 -4 -5 -5 -4 -4 -4 -4 -4 -4 -4 -3 -3 -3 -3 -3 -2 -2 -2 -2
-4 -4 -4 -4 -4 -4 -5 -5 -5 -5 -5 -5 -5 -5 -5 -5 -5 -5 -5 -5 -5 -5 -5 -5 -5 -5 -5 -4 -4 -4 -4 -3 -3 -3 -3 -3 -3 -2
-4 -4 -4 -5 -5 -5 -5 -5 -5 -5 -5 -5 -5 -5 -6 -6 -6 -6 -6 -5 -6 -5 -5 -5 -5 -5 -5 -5 -5 -4 -4 -4 -4 -3 -3 -3 -3 -3
-4 -5 -5 -5 -5 -5 -5 -5 -5 -6 -6 -6 -6 -6 -6 -6 -6 -6 -6 -6 -6 -6 -6 -5 -5 -5 -5 -5 -5 -5 -4 -4 -4 -4 -4 -4 -4 -3
-5 -5 -5 -5 -5 -6 -6 -6 -6 -6 -6 -6 -6 -6 -6 -6 -6 -6 -6 -6 -6 -6 -6 -6 -6 -5 -5 -5 -5 -5 -5 -5 -5 -4 -4 -4 -4 -4
-5 -6 -6 -6 -6 -6 -6 -6 -6 -6 -6 -6 -6 -6 -6 -6 -6 -6 -6 -6 -6 -6 -6 -6 -6 -6 -6 -6 -6 -5 -5 -5 -5 -5 -5 -5 -4 -4
Wind_Speed
2 2 2 2 1 1 2 2 4 5 5 4 3 2 4 6 9 9 10 13 16 17 18 18 18 17 17 17 17 18 18 17 17 18 17 17 18 18
1 2 2 2 2 2 2 2 3 4 5 3 3 3 4 6 8 9 10 13 15 16 17 18 17 16 16 16 17 17 17 17 18 18 18 18 18 18
2 2 2 2 2 2 2 2 3 3 6 5 3 3 4 5 6 7 9 10 11 14 16 16 16 16 16 16 16 17 17 17 17 17 18 18 17 18
2 2 3 2 3 2 2 3 3 4 5 7 4 3 5 5 5 6 6 8 9 13 15 15 16 16 16 16 16 17 17 16 16 16 17 17 17 18
2 2 3 2 3 3 3 3 3 4 4 5 6 4 4 4 5 6 6 6 8 11 13 14 14 15 15 16 16 15 15 15 15 15 15 15 15 16
2 2 2 3 4 4 4 4 4 4 4 5 5 5 4 4 4 5 7 6 7 7 9 11 12 14 15 15 15 14 14 14 14 15 15 14 14 15
2 2 2 3 4 4 4 4 4 4 4 5 6 5 5 4 5 5 7 7 7 5 5 6 7 7 9 11 12 13 13 13 14 15 15 14 13 13
2 2 3 3 5 6 6 6 5 5 5 6 6 7 7 6 5 6 6 7 6 3 5 7 5 7 7 7 11 13 13 13 14 13 13 13 12 11
2 2 3 3 5 4 5 6 6 8 8 6 7 7 7 6 6 7 7 7 8 5 5 8 5 7 7 8 13 13 13 14 13 12 11 11 11 11
2 2 3 4 4 5 4 4 4 4 6 4 5 6 6 6 6 7 8 8 7 5 4 6 5 6 7 7 12 13 12 11 11 11 11 11 11 11
2 3 3 4 7 7 4 4 4 4 6 7 8 8 9 9 7 5 5 5 7 5 3 4 4 5 5 6 8 10 10 10 10 10 9 9 9 9
3 3 5 6 8 7 3 3 5 5 5 6 6 7 7 7 8 5 5 5 5 5 2 3 4 4 4 4 4 5 6 9 10 9 8 8 8 5
3 3 4 8 9 8 5 3 6 6 5 5 5 5 5 5 5 5 5 5 5 6 4 3 4 4 4 5 4 4 4 4 4 6 7 7 7 5
3 3 4 8 8 7 5 6 8 7 4 4 4 5 5 5 6 6 6 6 7 8 7 5 4 5 6 6 5 3 3 3 3 4 3 5 5 6
2 5 6 7 6 5 6 8 6 4 3 4 5 5 5 6 6 6 6 6 6 7 7 6 5 5 5 6 5 4 4 3 3 3 2 2 3 3
3 4 6 6 5 5 6 5 4 4 4 4 5 5 5 5 5 5 5 5 5 5 5 5 5 5 5 5 5 5 4 3 2 2 2 2 2 2
3 2 3 3 4 4 4 4 4 4 5 5 5 5 5 5 5 5 4 4 4 5 5 4 4 4 5 4 4 5 4 3 3 2 1 2 2 2
3 2 3 3 3 4 4 5 5 5 5 5 5 5 5 6 6 5 4 4 5 5 5 5 4 4 3 3 3 4 3 3 2 1 1 2 2 1
2 2 2 3 4 4 4 4 5 5 5 5 5 5 5 5 5 5 5 5 4 4 4 4 4 3 4 4 3 2 2 2 2 1 1 1 2 1
1 2 3 3 3 4 4 4 5 5 5 5 5 5 5 5 5 5 5 5 5 5 4 4 3 3 3 4 3 3 3 2 1 2 1 1 1 1
2 3 3 3 3 4 4 5 5 5 6 5 5 6 5 5 5 5 5 7 6 4 4 4 4 5 3 1 2 2 3 3 1 1 1 0 1 1
3 3 3 3 3 3 4 4 5 5 6 5 5 6 5 4 5 5 5 5 4 4 4 4 4 3 1 1 2 2 2 3 3 4 3 2 2 2
3 3 3 3 3 3 4 4 5 5 5 5 5 5 5 5 4 4 4 4 4 4 4 3 3 2 2 1 1 1 2 2 2 3 4 6 5 4
Wind_Direction
204 210 223 240 246 249 239 221 225 252 258 247 247 268 286 279 279 280 278 278 274 272 272 273 274 273 271 269 268 268 267 267 268 265 264 267 263 263
208 217 233 244 245 246 243 247 233 239 255 251 252 276 286 295 289 283 277 281 277 275 273 272 271 271 271 270 270 269 267 264 263 265 263 264 262 262
239 231 246 251 247 249 246 246 246 242 258 269 257 283 276 280 291 286 284 279 279 279 278 275 273 271 270 270 269 267 267 264 262 264 264 262 262 261
261 250 256 265 260 258 252 250 252 251 254 275 280 275 272 279 281 284 290 291 287 287 286 283 279 274 272 271 269 267 266 261 259 261 263 262 260 263
258 256 262 259 265 268 260 256 261 272 261 270 280 279 276 287 291 289 287 282 291 292 292 288 283 279 277 274 272 271 268 263 258 258 260 262 261 260
287 282 280 261 259 264 264 260 263 268 270 269 275 282 282 289 288 291 296 289 290 295 289 289 287 284 281 277 274 270 266 263 262 260 256 257 257 257
318 311 303 300 295 281 276 265 263 263 269 271 276 282 281 290 286 285 289 296 291 278 286 289 289 285 281 277 276 272 267 263 259 257 256 255 254 254
308 317 320 316 314 312 305 300 289 275 272 271 273 277 278 278 281 286 287 297 293 281 289 291 288 283 281 274 277 275 269 266 262 256 253 252 252 253
311 311 319 321 321 302 305 312 304 300 293 279 275 277 284 286 287 287 282 279 277 279 286 285 283 279 281 281 284 277 269 264 256 256 255 252 249 248
332 315 305 305 309 309 304 306 305 309 302 290 274 279 284 288 279 276 278 282 282 272 254 275 282 278 286 282 283 277 271 263 258 258 256 251 248 248
342 336 325 311 321 322 313 303 305 303 311 309 304 304 304 302 301 296 292 295 294 286 255 265 278 288 286 281 283 280 276 273 268 262 254 250 248 247
350 342 337 334 330 327 314 301 298 301 311 314 313 313 308 304 306 286 276 279 290 288 271 274 283 299 296 283 286 291 284 279 273 260 254 250 245 238
335 330 327 333 337 340 339 316 309 315 311 306 307 307 306 302 296 285 271 262 270 275 280 289 283 280 275 292 298 289 282 281 277 265 259 253 244 232
316 312 319 333 340 345 345 340 335 331 316 313 311 309 310 308 304 298 287 274 263 266 274 272 271 276 283 285 286 289 290 282 275 271 256 255 247 246
319 327 335 343 350 351 351 348 344 333 318 315 313 307 301 297 299 300 298 290 283 278 275 268 263 268 270 274 278 280 288 284 275 268 255 241 238 235
343 346 351 358 7 2 357 356 352 341 331 315 308 303 303 303 303 301 301 309 307 303 291 276 266 261 266 270 270 278 276 263 270 269 266 265 240 226
348 355 358 355 358 356 352 348 345 341 337 326 317 313 311 310 307 305 298 302 300 302 310 311 297 277 260 258 269 274 276 275 261 252 256 274 272 244
8 351 343 341 341 342 341 338 337 335 329 322 317 316 314 311 310 309 306 302 300 301 303 305 314 313 304 282 251 267 275 269 274 268 247 258 278 279
10 334 325 322 323 323 325 325 324 324 325 321 320 318 316 313 311 310 309 307 305 303 301 301 307 309 305 302 299 278 276 283 281 275 251 249 263 271
314 301 304 308 311 313 314 314 315 319 323 322 320 315 310 308 310 311 309 307 308 308 307 308 306 301 282 278 290 303 294 262 261 275 294 312 329 49
291 291 295 300 305 307 309 311 313 314 317 316 315 313 310 310 308 305 306 311 314 309 310 308 300 310 298 287 291 312 320 318 284 212 218 126 74 77
281 286 294 296 299 301 304 307 310 312 316 315 314 314 312 311 309 310 312 313 311 310 306 304 315 327 335 302 299 311 332 356 18 41 60 89 144 165
276 279 284 286 287 292 296 299 301 305 309 310 312 313 315 316 314 310 310 313 316 317 316 318 330 343 350 338 330 352 8 13 42 59 54 50 71 91
Height
1467 1469 1469 1470 1471 1471 1472 1473 1473 1470 1469 1469 1470 1470 1469 1468 1467 1466 1466 1465 1464 1462 1461 1460 1459 1458 1457 1456 1455 1455 1454 1452 1451 1451 1450 1450 1449 1450
1463 1464 1464 1465 1466 1466 1466 1467 1466 1466 1464 1463 1463 1463 1462 1462 1461 1459 1458 1457 1456 1455 1453 1452 1451 1450 1449 1448 1447 1447 1446 1445 1444 1443 1443 1442 1442 1442
1458 1458 1459 1460 1460 1460 1460 1460 1461 1460 1458 1456 1457 1456 1455 1454 1453 1452 1451 1449 1448 1447 1446 1444 1443 1442 1441 1440 1439 1439 1438 1437 1436 1435 1435 1435 1434 1434
1454 1454 1454 1455 1455 1455 1454 1454 1454 1454 1453 1450 1449 1449 1448 1447 1446 1445 1443 1442 1440 1439 1438 1436 1435 1434 1433 1432 1431 1430 1429 1429 1428 1428 1428 1428 1427 1427
1449 1449 1449 1449 1449 1449 1449 1449 1449 1448 1447 1445 1443 1442 1441 1441 1439 1437 1436 1434 1433 1431 1430 1428 1427 1426 1425 1424 1423 1422 1421 1421 1421 1420 1420 1420 1420 1420
1445 1445 1444 1444 1444 1444 1444 1443 1443 1442 1441 1439 1437 1436 1435 1434 1433 1430 1428 1427 1425 1424 1422 1421 1420 1419 1417 1416 1415 1414 1414 1413 1412 1412 1412 1412 1412 1413
1441 1441 1440 1440 1440 1440 1439 1438 1437 1436 1435 1433 1432 1430 1429 1428 1426 1424 1422 1419 1418 1417 1415 1414 1413 1411 1410 1409 1408 1407 1406 1405 1405 1404 1404 1405 1405 1405
1437 1437 1436 1436 1435 1435 1434 1433 1432 1431 1429 1428 1427 1425 1424 1422 1421 1419 1417 1414 1411 1411 1409 1406 1406 1404 1403 1402 1401 1400 1399 1398 1398 1397 1397 1397 1397 1398
1434 1433 1432 1432 1431 1430 1428 1428 1427 1426 1425 1424 1422 1420 1418 1417 1416 1413 1411 1409 1407 1405 1403 1399 1399 1397 1397 1396 1395 1393 1392 1392 1391 1391 1390 1390 1390 1391
1430 1429 1428 1427 1426 1425 1424 1422 1422 1421 1419 1418 1417 1415 1413 1412 1410 1409 1406 1403 1401 1400 1398 1395 1392 1391 1390 1389 1388 1387 1386 1385 1385 1384 1384 1384 1384 1385
1427 1426 1425 1423 1422 1421 1420 1418 1416 1415 1414 1413 1412 1410 1408 1407 1405 1403 1400 1398 1394 1393 1392 1390 1387 1385 1383 1381 1381 1380 1379 1379 1378 1377 1377 1378 1378 1379
1424 1423 1422 1420 1419 1417 1415 1414 1412 1410 1409 1407 1406 1404 1403 1401 1400 1398 1396 1393 1390 1388 1386 1385 1382 1380 1376 1375 1375 1374 1373 1372 1372 1372 1372 1372 1373 1373
1421 1420 1418 1417 1415 1413 1412 1410 1408 1406 1404 1403 1400 1399 1398 1396 1394 1392 1391 1389 1386 1384 1383 1381 1378 1376 1374 1370 1369 1369 1368 1367 1367 1367 1367 1367 1367 1368
1419 1417 1416 1414 1412 1410 1408 1406 1405 1403 1401 1398 1396 1394 1393 1391 1389 1387 1385 1383 1381 1380 1378 1376 1374 1372 1370 1367 1365 1363 1363 1362 1362 1362 1362 1362 1362 1363
1417 1415 1413 1411 1409 1407 1405 1403 1401 1399 1397 1394 1392 1390 1389 1387 1384 1382 1380 1378 1376 1374 1373 1371 1369 1367 1366 1363 1361 1359 1358 1357 1357 1357 1357 1357 1357 1359
1414 1412 1410 1408 1406 1404 1402 1400 1398 1396 1394 1391 1389 1387 1385 1383 1380 1378 1375 1373 1371 1368 1368 1366 1364 1363 1360 1359 1357 1355 1355 1354 1353 1353 1353 1353 1353 1354
1412 1410 1407 1405 1403 1401 1399 1397 1395 1393 1391 1388 1386 1383 1381 1379 1376 1374 1372 1369 1367 1364 1362 1361 1360 1358 1356 1355 1353 1352 1351 1350 1350 1350 1349 1349 1350 1351
1410 1407 1405 1402 1400 1398 1396 1394 1392 1390 1388 1385 1383 1380 1377 1375 1373 1371 1369 1366 1364 1362 1360 1358 1356 1354 1353 1351 1351 1349 1348 1347 1347 1347 1346 1347 1347 1349
1407 1405 1402 1400 1398 1396 1394 1392 1390 1388 1385 1382 1380 1377 1374 1372 1370 1368 1366 1363 1361 1359 1357 1356 1354 1352 1350 1348 1347 1347 1346 1345 1344 1344 1345 1345 1345 1347
1404 1402 1400 1398 1396 1394 1392 1390 1387 1385 1382 1380 1377 1374 1372 1369 1367 1365 1363 1361 1359 1356 1355 1353 1352 1350 1349 1347 1345 1344 1344 1343 1342 1342 1343 1344 1345 1346
1401 1400 1398 1396 1394 1392 1390 1387 1385 1382 1380 1377 1374 1371 1369 1367 1364 1362 1360 1358 1356 1354 1352 1351 1350 1349 1347 1346 1345 1343 1343 1343 1342 1342 1342 1343 1343 1345
1398 1396 1395 1393 1391 1389 1387 1385 1382 1380 1377 1375 1372 1369 1367 1364 1362 1360 1358 1356 1354 1353 1351 1349 1348 1347 1346 1345 1343 1342 1342 1342 1342 1342 1342 1343 1343 1344
1395 1393 1391 1390 1388 1386 1384 1381 1379 1377 1375 1372 1370 1367 1364 1362 1360 1358 1356 1354 1353 1351 1349 1348 1347 1346 1345 1344 1343 1343 1342 1342 1342 1342 1343 1343 1344 1345